Somerville, NJ

2:45 AM EDT on March 23, 2017 (GMT -0400)
Somerset

Weather History for KSMQ - January, 2013

Change the Weather History Date:

Thursday, January 24, 2013

  Actual Average Record
Temperature  
Mean Temperature 15 °F -  
Max Temperature 24 °F 41 °F 67 °F (1967)
Min Temperature 6 °F 20 °F -7 °F (2014)
Degree Days  
Heating Degree Days 50    
Moisture  
Dew Point 1 °F    
Average Humidity 56    
Maximum Humidity 87    
Minimum Humidity 28    
Precipitation  
Precipitation 0.00 in - - ()
Sea Level Pressure  
Sea Level Pressure 30.27 in    
Wind  
Wind Speed 5 mph (NW)    
Max Wind Speed 20 mph    
Max Gust Speed 33 mph    
Visibility 10 miles    
Events      
Averages and records for this station are not official NWS values.
T = Trace of Precipitation, MM = Missing Value Source: NWS Daily Summary

Daily Weather History Graph

Daily Weather History Graph

Search for Another Location

Airport or City:

Trip Planner

Search our weather history database for the weather conditions in past years. The results will help you decide how hot, cold, wet, or windy it might be!

Date:

Astronomy

Jan. 24, 2013 Rise Set
Actual Time 7:15 AM EST 5:07 PM EST
Civil Twilight 6:45 AM EST 5:36 PM EST
Nautical Twilight 6:12 AM EST 6:09 PM EST
Astronomical Twilight 5:40 AM EST 6:42 PM EST
Moon 3:06 PM EST (1/24) 5:10 AM EST (1/24)
Length of Visible Light 10h 50m
Length of Day
9h 52m
Waxing Gibbous, 94% of the Moon is Illuminated
Jan 24
Waxing Gibbous
Jan 26
Full
Feb 3
Last Quarter
Feb 10
New
Feb 17
First Quarter

Hourly Weather History & Observations

Time (EST) Temp. Windchill Dew Point Humidity Pressure Visibility Wind Dir Wind Speed Gust Speed Precip Events Conditions
12:53 AM 9.0 °F - 3.9 °F 80% 30.17 in 10.0 mi Calm Calm - N/A   Scattered Clouds
1:53 AM 7.0 °F - 3.9 °F 87% 30.14 in 10.0 mi Calm Calm - N/A   Clear
2:53 AM 7.0 °F - 3.9 °F 87% 30.14 in 10.0 mi Calm Calm - N/A   Mostly Cloudy
3:53 AM 6.1 °F - 3.0 °F 87% 30.14 in 10.0 mi Calm Calm - N/A   Mostly Cloudy
4:53 AM 8.1 °F - 3.0 °F 80% 30.14 in 10.0 mi Calm Calm - N/A   Overcast
5:53 AM 8.1 °F - 3.9 °F 83% 30.17 in 10.0 mi Calm Calm - N/A   Overcast
6:53 AM 7.0 °F - 3.0 °F 84% 30.19 in 10.0 mi Calm Calm - N/A   Partly Cloudy
7:53 AM 7.0 °F - 3.0 °F 84% 30.21 in 10.0 mi Calm Calm - N/A   Clear
8:53 AM 15.1 °F 9.4 °F 5.0 °F 64% 30.23 in 10.0 mi Variable 3.5 mph - N/A   Clear
9:53 AM 19.0 °F 9.0 °F 1.9 °F 47% 30.25 in 10.0 mi North 8.1 mph - N/A   Clear
10:53 AM 21.0 °F 8.6 °F -0.0 °F 40% 30.26 in 10.0 mi NNW 12.7 mph 19.6 mph N/A   Clear
11:53 AM 21.9 °F 9.8 °F -4.0 °F 32% 30.26 in 10.0 mi NNW 12.7 mph 19.6 mph N/A   Clear
12:53 PM 23.0 °F 9.2 °F -2.0 °F 34% 30.26 in 10.0 mi NW 17.3 mph 24.2 mph N/A   Clear
1:53 PM 24.1 °F 10.1 °F -5.1 °F 28% 30.27 in 10.0 mi NW 18.4 mph 28.8 mph N/A   Partly Cloudy
2:53 PM 23.0 °F 9.6 °F -4.0 °F 31% 30.30 in 10.0 mi NNW 16.1 mph 25.3 mph N/A   Clear
3:53 PM 23.0 °F 8.3 °F -2.0 °F 34% 30.32 in 10.0 mi NW 19.6 mph 33.4 mph N/A   Clear
4:53 PM 21.0 °F 7.6 °F -0.9 °F 38% 30.35 in 10.0 mi NW 15.0 mph 27.6 mph N/A   Clear
5:53 PM 19.9 °F 7.9 °F -0.0 °F 42% 30.38 in 10.0 mi NW 11.5 mph 19.6 mph N/A   Clear
6:53 PM 19.9 °F 9.3 °F -0.9 °F 40% 30.40 in 10.0 mi NW 9.2 mph - N/A   Clear
7:53 PM 19.0 °F 7.5 °F -0.0 °F 43% 30.41 in 10.0 mi NW 10.4 mph - N/A   Clear
8:53 PM 18.0 °F 6.9 °F 1.0 °F 48% 30.42 in 10.0 mi NW 9.2 mph - N/A   Clear
10:53 PM 17.1 °F 8.7 °F -2.0 °F 43% 30.43 in 10.0 mi WNW 5.8 mph - N/A   Clear
11:53 PM 16.0 °F 8.8 °F -2.9 °F 43% 30.44 in 10.0 mi Variable 4.6 mph - N/A   Clear